| time (UTC) | temp F | wind direction | speed MPH | gust MPH | rain 1hr in | rain 24hr in | rain mn in | humidity % | barometer mb |
| 20260503204531 | 86 | 52 | 3.0 | 9.0 | 0.00 | 0.00 | 0.00 | 26 | 1013.1 |
| 20260503203032 | 87 | 29 | 3.0 | 9.0 | 0.00 | 0.00 | 0.00 | 26 | 1013.3 |
| 20260503201530 | 86 | 75 | 4.0 | 11.0 | 0.00 | 0.00 | 0.00 | 26 | 1013.4 |
| 20260503200033 | 86 | 75 | 3.0 | 10.0 | 0.00 | 0.00 | 0.00 | 27 | 1013.6 |
| 20260503194529 | 85 | 40 | 3.0 | 10.0 | 0.00 | 0.00 | 0.00 | 27 | 1013.7 |
| 20260503193106 | 86 | 78 | 5.0 | 11.0 | 0.00 | 0.00 | 0.00 | 28 | 1013.9 |
| 20260503190036 | 84 | 19 | 3.0 | 9.0 | 0.00 | 0.00 | 0.00 | 32 | 1014.0 |
| 20260503184535 | 84 | 339 | 4.0 | 9.0 | 0.00 | 0.00 | 0.00 | 34 | 1014.2 |
| 20260503181528 | 83 | 323 | 3.0 | 8.0 | 0.00 | 0.00 | 0.00 | 39 | 1014.5 |
| 20260503180031 | 82 | 304 | 3.0 | 8.0 | 0.00 | 0.00 | 0.00 | 40 | 1014.6 |
| 20260503174530 | 82 | 310 | 3.0 | 7.0 | 0.00 | 0.00 | 0.00 | 39 | 1014.7 |
| 20260503173031 | 81 | 347 | 1.0 | 5.0 | 0.00 | 0.00 | 0.00 | 40 | 1014.8 |
| 20260503171529 | 82 | 330 | 1.0 | 5.0 | 0.00 | 0.00 | 0.00 | 39 | 1014.9 |
| 20260503140108 | 45 | 112 | 1.0 | 3.0 | 0.00 | 0.00 | 0.00 | 95 | 1015.3 |
| 20260503130106 | 44 | 127 | 2.0 | 5.0 | 0.00 | 0.00 | 0.00 | 95 | 1015.1 |
| 20260503081533 | 48 | 122 | 1.0 | 3.0 | 0.00 | 0.00 | 0.00 | 89 | 1015.3 |
| 20260503071531 | 49 | 142 | 2.0 | 3.0 | 0.00 | 0.00 | 0.00 | 84 | 1015.3 |
| 20260503054533 | 54 | 153 | 2.0 | 4.0 | 0.00 | 0.00 | 0.00 | 82 | 1015.1 |
| 20260503053036 | 54 | 128 | 2.0 | 3.0 | 0.00 | 0.00 | 0.00 | 81 | 1015.0 |
| 20260503050028 | 55 | 163 | 2.0 | 4.0 | 0.00 | 0.00 | 0.00 | 79 | 1014.9 |
| 20260503043031 | 57 | 150 | 1.0 | 3.0 | 0.00 | 0.00 | 0.00 | 77 | 1014.8 |
| 20260503041645 | 58 | 181 | 1.0 | 4.0 | 0.00 | 0.00 | 0.00 | 75 | 1014.7 |
| 20260503040039 | 59 | 129 | 0.0 | 4.0 | 0.00 | 0.00 | 0.00 | 73 | 1014.5 |
| 20260503034532 | 60 | 114 | 1.0 | 4.0 | 0.00 | 0.00 | 0.00 | 71 | 1014.2 |
| 20260503031536 | 63 | 108 | 2.0 | 4.0 | 0.00 | 0.00 | 0.00 | 70 | 1013.7 |
| 20260503030108 | 65 | 127 | 1.0 | 3.0 | 0.00 | 0.00 | 0.00 | 66 | 1013.4 |
| 20260503024533 | 67 | 141 | 1.0 | 3.0 | 0.00 | 0.00 | 0.00 | 63 | 1013.2 |
| 20260503023032 | 68 | 180 | 2.0 | 3.0 | 0.00 | 0.00 | 0.00 | 59 | 1013.1 |
| 20260503021528 | 70 | 174 | 1.0 | 3.0 | 0.00 | 0.00 | 0.00 | 57 | 1013.0 |
| 20260503020031 | 72 | 90 | 0.0 | 2.0 | 0.00 | 0.00 | 0.00 | 54 | 1013.0 |
| 20260503014606 | 73 | 90 | 0.0 | 1.0 | 0.00 | 0.00 | 0.00 | 49 | 1013.0 |
| 20260503013143 | 75 | 90 | 0.0 | 4.0 | 0.00 | 0.00 | 0.00 | 44 | 1013.0 |
| 20260503011532 | 77 | 74 | 0.0 | 3.0 | 0.00 | 0.00 | 0.00 | 38 | 1012.9 |
| 20260503010028 | 78 | 75 | 1.0 | 6.0 | 0.00 | 0.00 | 0.00 | 38 | 1013.0 |
| 20260503004530 | 77 | 81 | 0.0 | 3.0 | 0.00 | 0.00 | 0.00 | 38 | 1013.0 |
| 20260503003029 | 78 | 73 | 0.0 | 3.0 | 0.00 | 0.00 | 0.00 | 36 | 1013.0 |
| 20260503001531 | 78 | 59 | 1.0 | 6.0 | 0.00 | 0.00 | 0.00 | 35 | 1013.0 |
| 20260503000038 | 78 | 11 | 3.0 | 9.0 | 0.00 | 0.00 | 0.00 | 35 | 1013.0 |
| 20260502234607 | 78 | 27 | 2.0 | 7.0 | 0.00 | 0.00 | 0.00 | 35 | 1013.2 |
| 20260502233039 | 78 | 355 | 3.0 | 10.0 | 0.00 | 0.00 | 0.00 | 34 | 1013.3 |
| 20260502231530 | 79 | 357 | 2.0 | 8.0 | 0.00 | 0.00 | 0.00 | 34 | 1013.5 |
| 20260502230037 | 79 | 21 | 2.0 | 9.0 | 0.00 | 0.00 | 0.00 | 35 | 1013.6 |
| 20260502224530 | 79 | 69 | 3.0 | 15.0 | 0.00 | 0.00 | 0.00 | 35 | 1013.8 |
| 20260502223033 | 77 | 83 | 4.0 | 13.0 | 0.00 | 0.00 | 0.00 | 35 | 1013.8 |
| 20260502221530 | 77 | 50 | 3.0 | 10.0 | 0.00 | 0.00 | 0.00 | 41 | 1014.0 |
| 20260502214532 | 76 | 329 | 2.0 | 7.0 | 0.00 | 0.00 | 0.00 | 46 | 1014.4 |
| 20260502213108 | 75 | 300 | 3.0 | 7.0 | 0.00 | 0.00 | 0.00 | 48 | 1014.6 |
| 20260502211611 | 75 | 299 | 2.0 | 6.0 | 0.00 | 0.00 | 0.00 | 48 | 1014.7 |